ECMWFFLT1_925_rhum_105.txt.gz
RH
38 38 38 39 39 41 41 43 45 47 50 51 52 55 56 58 61 62 64 65 65 65 66 67 68 69 69 70 72 73 74 75 76 76 76 78 80 81 84 85 89 95 91 83 80 77 75 75 73 71 70 68 66 65 65 67 69 70 72 73 70 68 71
39 38 39 39 40 42 43 45 47 49 52 53 54 57 59 62 64 65 66 67 68 68 68 70 72 73 74 73 75 76 77 78 77 79 80 80 83 85 86 88 91 94 93 88 83 82 80 78 76 73 71 70 68 66 66 66 68 69 69 69 70 71 72
39 39 40 41 42 45 46 47 49 51 53 55 57 60 62 64 66 67 69 69 71 72 73 75 77 77 77 76 78 79 79 80 80 81 83 84 85 89 90 90 92 95 96 92 88 86 84 81 79 75 73 71 69 67 67 68 67 67 67 66 68 71 68
40 40 41 43 45 47 48 50 51 53 56 57 60 62 64 67 68 68 70 72 75 76 78 80 81 80 78 78 83 84 83 84 85 84 86 89 90 92 93 94 95 97 97 95 92 88 85 83 80 78 76 74 71 70 69 70 68 68 69 67 66 69 68
41 42 43 45 47 49 50 52 53 56 59 59 62 65 67 69 69 69 72 75 77 79 81 83 83 81 80 83 87 88 88 87 87 87 90 92 94 95 95 96 98 99 98 97 94 90 86 86 83 81 80 77 75 74 71 71 71 70 71 71 69 70 72
43 44 46 47 49 51 52 54 56 57 59 61 63 67 70 71 70 70 73 78 80 80 79 81 83 82 83 87 90 91 92 91 90 91 92 94 95 96 97 99 100 101 101 99 97 94 90 88 85 82 81 78 75 74 74 73 73 72 71 74 75 74 71
46 46 48 49 51 54 55 56 58 59 61 63 67 70 72 73 72 72 75 78 78 78 79 82 84 86 88 91 94 94 94 94 94 95 96 97 98 98 100 103 103 103 105 103 100 98 94 91 87 82 81 79 75 75 76 76 77 78 75 74 75 74 70
49 49 51 52 54 56 58 59 61 62 64 67 69 71 73 72 72 75 79 81 82 84 88 90 91 92 92 93 94 95 95 95 94 96 99 98 99 101 103 105 105 104 105 104 102 99 95 92 90 86 83 82 80 82 82 78 78 80 77 73 72 72 71
52 53 54 56 58 60 61 62 64 65 66 70 74 77 80 81 84 89 91 93 95 95 96 97 96 95 92 90 91 92 91 90 90 95 100 99 99 102 104 105 105 105 104 103 101 100 97 95 93 89 86 84 83 83 81 76 75 77 76 73 73 71 70
55 57 59 60 62 63 64 66 66 66 73 85 92 94 96 98 98 99 100 100 100 100 99 100 99 97 95 94 95 95 95 96 97 100 101 100 100 101 102 103 103 102 101 101 102 100 97 98 97 91 86 85 82 79 78 76 76 77 76 75 79 78 71
60 62 63 64 66 66 67 69 68 73 87 100 101 98 101 104 101 100 101 101 100 101 101 100 100 100 100 100 100 99 98 98 100 101 101 101 101 101 100 101 103 104 102 99 101 101 99 100 99 92 86 84 82 80 80 79 79 81 81 82 88 90 77
64 66 66 68 69 70 72 72 73 85 99 103 99 93 93 100 103 101 100 100 100 100 100 100 100 100 100 99 98 97 98 96 94 97 101 102 101 101 102 95 90 96 104 104 102 101 100 99 98 93 89 86 83 83 83 83 83 83 85 86 89 92 83
69 70 70 72 74 75 78 78 80 93 103 102 101 96 90 95 103 101 99 101 101 100 101 101 100 101 100 99 97 96 97 97 96 97 101 102 100 99 99 88 71 70 85 97 102 104 102 98 96 96 92 85 83 86 88 89 89 86 88 90 88 88 83
73 74 75 78 80 81 85 84 85 96 104 102 101 100 96 98 102 100 100 101 100 100 101 100 100 102 102 100 98 96 93 94 96 97 97 97 94 88 87 84 71 62 66 76 88 99 101 94 91 94 91 82 82 90 94 94 92 89 89 90 88 85 82
78 81 82 84 86 89 91 90 91 100 104 100 100 101 100 101 101 100 101 101 100 101 100 98 99 100 101 102 101 97 96 97 98 97 96 95 94 89 85 84 79 74 75 76 79 86 90 87 84 85 84 77 76 83 88 89 91 91 90 92 93 92 90
85 88 88 90 93 96 98 95 96 103 104 101 101 101 100 100 101 100 101 100 100 100 97 96 98 97 99 103 99 95 97 94 92 99 102 99 98 98 94 91 87 82 78 76 79 84 85 83 82 82 84 83 83 87 89 91 96 98 99 102 102 100 96
92 93 96 98 99 102 104 99 97 103 105 102 101 100 99 101 101 99 101 100 98 97 96 94 93 94 100 102 97 99 96 77 70 91 104 101 100 102 99 97 96 91 80 74 80 88 88 86 87 90 91 88 86 89 95 103 104 99 99 103 103 100 95
98 98 100 103 102 103 105 101 97 102 105 102 100 101 100 100 100 100 101 100 97 95 95 93 89 91 102 104 100 104 97 67 60 85 103 102 102 102 101 99 97 94 89 84 84 86 86 83 84 86 85 77 72 73 80 93 97 90 90 94 94 91 88
102 103 101 101 103 103 104 104 98 96 102 105 102 102 101 100 100 101 100 100 100 98 96 96 91 88 98 104 103 103 95 77 77 96 103 101 103 103 102 99 93 92 96 97 95 91 85 79 75 74 71 65 62 60 60 67 75 81 90 94 91 86 85
104 105 101 99 102 103 103 104 96 89 98 107 104 100 101 100 99 100 100 100 101 99 98 98 94 90 91 97 102 103 91 75 77 88 91 93 101 103 98 93 92 95 98 96 91 84 75 66 61 59 57 56 55 55 56 61 68 79 91 98 98 95 92
102 105 102 98 102 103 101 100 94 86 92 103 105 100 99 101 101 100 101 101 100 101 102 100 98 95 91 94 102 100 81 66 68 78 84 90 97 98 94 96 98 96 90 83 78 74 71 68 64 63 64 66 66 66 68 70 72 80 90 97 102 104 101
102 105 104 100 99 100 97 93 90 84 83 91 102 104 100 100 100 98 99 102 101 100 100 100 101 100 96 98 99 83 64 65 78 86 90 95 98 99 99 99 95 86 79 78 79 81 85 87 86 84 82 81 81 80 79 79 80 85 93 96 98 101 101
104 105 104 100 97 97 94 89 84 81 76 76 86 99 104 99 92 91 96 102 102 101 102 103 101 93 81 76 73 63 61 77 93 97 97 96 95 97 96 89 81 76 76 81 87 93 98 98 97 96 93 91 91 90 89 90 90 91 95 98 98 98 98
103 102 102 100 98 96 92 87 80 75 73 69 71 89 104 99 88 90 99 104 103 101 98 92 85 76 67 62 65 72 82 91 93 94 97 95 91 88 83 76 71 72 78 89 97 101 103 100 97 97 96 95 96 95 95 96 95 94 96 97 97 94 93
102 101 101 100 101 97 89 84 79 74 73 72 72 83 95 94 91 96 103 103 99 93 88 85 84 82 82 83 88 95 95 88 81 83 89 90 84 78 72 69 70 74 85 98 104 102 101 100 98 97 97 96 97 97 98 98 97 96 95 95 95 94 93
102 103 102 101 101 98 89 83 81 79 78 78 80 84 84 82 83 87 89 89 88 85 86 92 96 96 96 97 100 102 98 91 86 85 85 82 76 71 69 70 74 83 96 104 104 102 102 101 99 98 98 98 98 98 98 98 98 99 98 98 98 96 95
102 103 103 101 99 97 92 90 90 90 87 86 87 85 80 77 78 79 80 83 84 84 86 91 96 100 102 101 101 101 97 91 85 81 77 75 73 71 71 76 84 94 101 102 101 102 103 101 99 99 99 98 98 99 99 98 98 100 99 97 95 93 89
104 103 101 100 100 98 98 98 98 96 94 91 89 85 82 82 85 87 90 92 92 92 96 99 101 102 100 95 92 88 83 77 73 73 75 76 77 76 78 86 95 98 96 96 99 102 102 100 99 99 98 98 99 99 97 95 96 98 99 97 95 90 87
102 102 100 100 101 100 100 101 100 99 98 97 95 94 95 96 96 96 98 99 100 101 102 101 98 92 86 81 77 74 73 73 75 80 83 83 84 85 89 94 99 99 97 98 101 102 101 101 101 99 98 99 100 99 95 93 96 99 99 98 96 90 87
101 101 101 102 102 101 101 101 100 99 99 98 92 87 89 94 99 102 102 101 102 102 97 92 86 81 76 73 73 75 79 83 89 93 94 91 90 92 96 99 101 102 102 102 102 102 101 101 101 100 100 101 100 98 95 95 98 99 98 97 95 92 91
101 101 101 102 102 102 101 101 99 97 99 100 94 85 81 84 92 100 102 100 100 98 91 84 79 76 73 74 78 84 89 93 99 102 101 99 97 97 99 101 102 103 103 103 103 103 102 102 101 100 101 101 100 99 98 98 98 97 97 97 95 93 94
101 100 100 100 100 100 100 100 100 99 99 101 100 96 93 91 93 98 101 100 98 94 86 79 77 76 77 80 84 89 93 98 102 103 103 104 103 101 101 102 102 102 104 104 104 102 101 101 101 100 101 101 100 100 100 99 98 98 98 98 96 94 94
102 101 102 101 101 102 101 100 101 101 100 100 100 99 100 101 98 98 101 101 96 89 82 78 78 78 80 84 88 91 95 99 101 102 104 106 106 105 103 102 101 102 103 103 102 102 101 101 100 100 101 101 100 101 101 100 99 99 98 96 95 93 93
98 99 101 101 101 103 103 101 101 100 99 101 101 98 97 100 100 101 102 99 91 84 82 81 81 82 83 86 89 92 95 98 100 101 103 105 106 106 105 102 100 101 103 103 103 102 101 101 100 101 101 101 101 101 100 100 100 99 97 96 94 93 93
95 94 94 96 99 102 102 101 100 99 99 100 100 97 96 100 101 98 94 88 82 82 86 87 88 87 87 88 91 93 95 97 98 100 102 104 105 107 108 105 101 102 104 104 103 102 101 101 100 100 100 101 101 101 100 100 101 100 99 98 95 93 93
98 94 93 94 96 98 100 100 99 100 100 100 101 102 103 101 95 87 84 82 82 85 90 91 91 91 89 90 93 94 94 96 97 98 100 102 105 108 109 107 103 102 103 102 101 101 101 101 101 101 100 100 101 101 100 100 101 100 100 99 96 94 93

ECMWFFLT1_925_rhum_108.txt.gz
RH
36 37 38 39 39 39 38 39 39 39 41 42 45 47 48 50 53 56 57 59 60 62 63 64 64 66 65 67 69 70 71 73 74 76 77 80 82 83 84 84 88 94 92 83 78 76 75 73 72 72 69 66 66 66 66 66 67 67 68 66 63 63 65
38 38 40 39 39 39 39 39 40 40 42 44 46 48 50 53 56 58 59 61 64 64 65 66 66 67 68 69 71 72 74 75 76 79 81 82 84 86 86 86 89 94 96 91 86 83 82 78 75 75 72 69 68 68 67 67 67 67 65 64 64 62 59
39 39 39 39 39 39 40 40 41 41 43 46 48 50 52 55 57 60 62 64 66 66 67 68 69 69 69 71 75 76 77 79 79 81 83 84 85 87 88 87 88 92 96 94 90 88 88 85 80 78 74 71 70 69 70 70 68 68 69 66 65 65 62
39 38 39 39 40 40 41 42 42 44 46 47 50 52 54 56 59 61 64 65 67 68 69 71 72 72 73 75 79 81 80 81 82 83 86 88 88 90 91 90 91 94 95 96 93 91 91 90 86 83 79 75 73 73 72 72 69 69 71 70 68 69 65
38 38 39 39 41 42 43 44 44 46 48 50 52 54 55 58 61 62 65 66 68 70 72 74 75 74 76 80 83 85 83 82 84 86 88 91 92 92 93 94 97 99 98 99 98 95 92 91 88 87 84 79 76 76 74 73 72 72 72 72 71 70 67
39 39 40 41 43 45 45 47 47 49 51 52 55 57 58 61 62 64 66 68 70 72 74 76 77 77 80 83 85 84 82 82 85 88 90 92 92 93 95 97 99 101 101 101 100 97 95 92 90 89 87 82 78 78 78 76 76 73 71 73 74 72 67
40 40 42 45 47 48 48 49 50 51 53 55 57 59 60 62 64 66 68 70 72 75 77 78 78 79 80 81 82 83 84 86 88 90 92 93 92 93 96 101 102 102 104 103 101 100 98 96 93 90 88 85 81 80 81 79 81 80 74 72 74 72 69
42 42 46 49 50 51 52 52 53 54 56 58 60 62 63 65 66 68 70 73 76 77 80 80 80 81 82 83 84 86 87 89 90 92 94 93 93 96 99 103 104 103 103 103 102 100 98 96 94 92 90 87 85 86 85 80 81 82 78 73 72 71 71
45 46 49 51 53 55 56 56 57 58 59 62 64 65 67 68 70 74 78 82 86 87 88 88 88 88 88 88 88 88 89 90 90 94 97 95 94 98 101 104 104 103 101 101 101 100 98 96 94 92 89 87 85 85 83 78 77 79 77 74 74 72 71
48 49 51 54 57 58 59 61 62 61 67 77 83 85 86 86 87 90 93 95 97 97 96 93 91 90 88 88 89 90 93 94 96 98 100 98 97 98 101 104 104 102 101 101 101 98 95 96 96 91 87 85 83 81 80 79 79 80 78 77 81 80 70
52 53 54 57 61 62 63 66 65 68 81 95 99 98 99 101 100 99 100 100 100 100 99 98 96 94 92 93 94 95 98 99 101 102 101 100 100 100 100 101 102 102 101 99 100 99 97 98 97 91 85 83 82 81 81 80 80 81 82 83 89 89 75
56 58 59 61 65 66 68 69 68 78 95 103 100 97 97 100 102 101 101 101 100 100 100 100 100 99 99 99 99 99 99 99 99 100 100 101 101 100 101 102 97 96 100 102 101 100 99 98 97 93 89 88 87 85 83 83 82 83 85 86 89 93 84
60 62 64 66 69 70 72 73 72 84 100 103 100 98 96 98 102 102 100 101 100 100 101 100 100 101 100 99 98 97 97 98 99 99 100 102 102 100 101 96 79 69 82 99 104 105 104 100 99 99 94 86 85 87 87 89 89 87 89 91 90 90 85
64 67 68 71 74 74 78 78 74 85 100 103 100 100 98 99 102 100 99 101 100 99 101 100 99 100 100 98 97 95 94 94 95 97 98 97 95 89 85 81 69 58 64 76 86 96 99 91 87 88 83 73 73 83 88 90 91 90 90 93 92 90 87
69 72 73 76 78 80 84 82 80 91 103 101 99 101 100 99 100 100 100 101 100 101 101 99 97 98 99 99 98 94 91 90 90 92 94 92 89 82 74 70 66 62 60 59 62 70 73 69 66 66 66 61 63 72 79 82 88 91 93 95 96 95 96
73 76 76 79 83 87 90 87 86 97 104 101 99 101 99 99 100 100 100 99 98 98 97 96 97 97 97 99 96 89 90 97 98 96 96 96 94 90 85 77 66 60 61 60 59 60 59 58 59 61 64 68 73 80 85 90 95 97 99 102 101 100 100
77 79 82 86 89 93 97 92 87 96 103 102 101 100 99 100 100 99 99 98 96 96 98 98 97 95 93 95 92 88 94 101 102 100 101 100 99 98 98 94 80 69 65 62 59 63 68 71 74 78 81 81 83 87 93 101 103 95 93 97 96 94 89
83 85 88 92 93 96 101 95 88 94 104 104 100 100 100 100 100 100 100 99 98 98 97 94 91 89 93 97 94 94 100 98 94 98 102 99 100 101 100 99 92 85 82 76 69 73 82 83 80 81 82 77 73 73 78 87 87 80 83 91 91 86 81
89 91 92 92 92 94 98 98 90 90 101 105 101 101 101 99 100 101 99 98 99 98 96 94 92 89 95 103 100 98 102 97 91 99 104 100 100 101 100 99 98 96 97 96 92 93 96 92 83 79 79 73 68 64 60 60 62 66 80 94 92 86 88
95 96 92 88 89 90 93 96 92 85 92 104 104 100 100 100 99 100 100 100 100 100 99 96 91 86 90 98 100 102 102 93 85 91 99 100 102 102 100 99 99 100 102 103 101 98 94 87 78 72 68 63 57 52 47 49 58 68 83 97 99 95 96
98 99 91 83 85 88 90 95 94 86 89 102 105 100 99 101 100 99 100 100 97 97 97 95 93 90 86 86 94 103 97 79 70 78 88 94 99 99 96 98 101 102 100 96 91 84 76 70 64 59 55 52 49 45 46 53 63 74 85 96 101 101 101
99 99 93 86 85 88 91 94 94 88 86 94 103 104 100 99 100 100 100 100 99 99 100 99 96 92 86 87 99 104 88 67 66 79 87 91 95 98 99 101 99 93 87 81 76 72 70 67 64 61 60 60 59 58 59 62 65 75 89 98 101 102 103
98 99 98 94 90 90 93 94 91 87 82 82 90 100 103 101 100 100 100 101 101 100 100 100 100 99 98 97 94 84 70 65 77 91 96 96 98 99 98 94 85 78 75 72 71 73 75 73 71 72 73 74 77 79 81 83 82 85 95 100 99 99 99
97 101 103 102 98 95 95 94 89 83 78 73 73 82 96 104 101 95 96 102 103 102 102 102 99 94 88 79 70 67 73 85 96 99 98 97 94 89 84 78 74 73 73 74 75 78 80 78 76 78 82 84 90 94 95 97 96 95 97 98 96 96 96
99 103 105 104 103 99 95 91 85 78 74 72 69 72 86 100 99 89 88 96 98 95 94 96 91 82 77 75 77 83 90 92 90 88 87 88 85 80 76 74 75 77 76 78 79 80 81 81 81 84 90 94 97 100 99 99 98 97 98 99 98 98 98
102 106 107 104 102 100 94 87 83 78 73 72 74 76 79 82 80 72 69 74 75 72 73 80 83 84 88 91 92 92 91 87 85 85 85 86 84 82 80 78 76 75 75 77 80 84 88 90 89 92 98 99 98 98 98 99 100 101 101 100 99 98 97
101 105 107 104 100 97 94 89 86 83 80 77 80 82 78 73 70 68 67 69 70 69 70 73 77 84 94 99 97 97 98 96 93 91 87 86 84 81 77 74 74 77 83 89 92 95 96 94 93 98 101 99 99 99 99 100 101 101 101 99 97 99 98
99 102 102 101 99 97 98 97 93 89 86 85 85 83 80 78 79 79 81 81 79 79 82 86 90 95 101 103 103 101 100 97 94 90 85 80 76 72 70 71 75 82 89 93 94 95 96 95 99 103 102 100 101 101 100 100 100 99 99 98 99 101 99
98 98 97 98 100 100 101 101 97 93 92 93 94 92 92 95 95 93 93 92 91 92 96 99 101 102 101 101 100 96 93 90 85 80 75 70 67 68 71 74 79 84 87 90 94 99 102 104 105 104 102 101 102 102 101 100 99 98 98 99 100 100 98
101 99 98 99 100 100 101 101 99 98 99 100 101 99 94 93 95 98 100 100 99 101 102 101 101 100 99 97 92 87 84 80 76 73 71 69 69 73 76 78 82 87 92 97 103 107 106 104 103 102 102 101 102 102 101 99 97 98 99 100 101 100 98
100 99 100 101 102 101 101 101 100 101 100 100 101 98 90 84 87 95 100 101 100 100 101 100 99 97 94 89 85 82 79 77 76 76 78 79 80 82 84 85 86 89 95 101 105 107 105 103 102 102 102 101 101 102 101 99 98 98 98 99 99 100 98
102 101 100 100 100 100 100 100 100 100 100 100 100 99 97 95 95 97 100 100 99 99 100 100 97 94 89 85 81 79 78 77 78 81 84 89 92 93 93 93 92 93 98 102 104 106 106 103 100 101 102 101 101 101 100 100 100 99 99 98 99 99 98
98 100 101 100 101 101 100 100 101 100 100 100 100 99 100 100 99 99 101 101 100 99 99 97 93 88 84 82 79 78 77 78 81 83 86 90 94 96 95 95 95 98 101 102 102 104 105 102 100 101 102 102 102 101 100 100 100 100 99 99 99 100 98
88 90 93 96 99 102 102 100 101 101 100 100 100 100 100 99 98 99 101 102 100 100 98 94 89 86 83 82 81 80 79 80 82 84 87 90 93 95 95 95 97 101 103 104 104 105 106 106 105 104 102 102 102 101 101 100 100 100 100 100 100 100 99
91 88 88 90 95 100 102 101 100 100 100 100 100 99 99 100 100 100 101 101 100 99 95 89 86 85 83 83 83 83 83 85 86 87 90 92 92 93 94 96 98 101 104 106 106 104 103 104 104 103 102 102 103 102 101 100 100 100 100 100 99 100 100
97 93 91 91 92 95 99 100 100 100 100 100 100 101 102 102 100 98 98 97 94 90 86 83 84 85 85 86 88 89 89 89 90 90 91 92 93 95 97 97 99 101 104 105 103 101 101 101 101 101 102 102 103 103 100 100 100 100 100 100 100 100 99

ECMWFFLT1_925_rhum_111.txt.gz
RH
26 29 32 34 35 35 36 37 38 39 39 39 39 40 41 42 42 45 48 50 52 53 55 56 58 60 62 62 65 69 72 73 76 77 76 76 75 74 75 76 80 82 79 75 72 69 69 70 70 72 72 71 70 70 71 71 69 67 66 65 63 62 58
27 30 33 35 36 37 37 39 40 40 40 39 40 41 42 42 44 46 49 52 55 57 58 58 60 62 63 64 65 67 71 73 76 80 80 79 77 78 80 81 83 84 83 81 76 71 70 71 72 72 72 72 72 71 71 72 71 70 70 69 65 62 58
29 32 35 36 37 38 39 40 40 40 40 40 40 41 42 43 44 47 50 53 56 58 60 61 63 65 65 66 68 69 71 72 75 79 84 84 82 82 83 83 84 85 87 86 81 75 73 72 71 70 70 73 74 74 74 74 73 75 74 68 62 64 65
31 34 36 37 38 40 40 41 40 40 40 40 41 43 43 44 46 48 51 53 56 58 60 62 64 66 66 67 70 73 74 76 78 80 85 90 89 87 87 86 85 86 87 88 86 82 80 77 74 71 71 73 75 75 77 77 77 78 75 65 60 66 66
32 34 37 38 39 40 40 40 40 40 41 42 43 44 45 46 48 50 52 54 56 59 60 63 65 66 67 69 73 77 77 78 79 80 86 94 95 94 93 91 89 90 91 91 91 90 88 85 79 75 74 74 73 74 75 77 79 81 79 71 64 64 59
32 34 37 38 39 40 40 40 40 42 43 44 46 47 48 50 51 53 55 56 58 60 61 63 65 66 68 71 76 79 79 79 80 81 85 90 92 94 98 98 97 97 97 97 98 96 92 88 84 80 77 75 74 75 74 74 76 78 80 78 71 64 58
33 35 37 38 40 40 40 41 43 44 46 48 49 50 51 53 55 56 58 59 61 63 64 65 67 70 72 74 77 79 80 81 81 83 84 83 83 89 97 101 101 102 102 101 101 100 97 92 87 83 80 78 78 80 79 77 75 75 76 76 72 68 67
33 35 38 40 41 41 43 44 46 48 50 52 53 55 56 57 58 60 61 63 65 66 66 68 70 72 73 74 77 79 80 82 82 83 85 83 83 88 94 99 102 104 104 103 101 100 98 93 88 83 81 80 81 82 80 78 75 74 74 73 72 72 74
34 37 40 42 42 44 46 48 50 51 53 55 55 56 58 59 60 63 64 66 68 69 70 71 73 75 76 77 80 82 83 85 84 85 86 86 88 92 96 101 105 105 104 103 102 100 96 92 89 85 82 81 81 79 77 75 74 74 74 74 73 74 75
37 40 42 44 46 48 49 52 52 52 56 65 71 72 74 76 78 80 81 81 80 80 80 80 80 81 81 82 84 85 86 86 87 90 92 91 92 95 99 103 106 105 102 101 100 98 95 91 88 84 79 78 78 76 74 75 74 73 73 73 75 76 75
40 43 44 46 49 51 53 55 53 54 68 86 94 95 96 98 99 98 98 97 95 94 93 92 92 91 90 89 89 88 88 86 87 94 99 99 98 98 100 102 104 104 103 102 101 99 96 93 90 87 83 80 79 78 77 76 75 75 74 75 77 77 75
43 46 48 50 53 54 57 58 56 64 85 100 100 101 102 101 101 101 101 101 100 100 99 98 100 99 96 95 92 89 89 88 87 94 102 102 101 100 101 101 101 101 100 99 100 100 98 96 93 90 87 86 83 81 80 80 80 80 80 81 81 79 76
46 49 51 53 55 57 60 61 59 70 94 105 101 101 101 100 101 101 100 101 100 100 101 100 101 102 100 98 96 94 95 95 93 96 100 102 101 101 101 101 100 100 101 102 102 102 102 99 96 96 95 93 91 89 88 87 87 88 88 88 86 82 78
50 52 53 55 59 60 64 65 58 65 91 105 102 100 97 97 102 101 99 101 100 99 101 100 100 101 100 100 99 99 100 100 100 101 101 101 102 100 100 100 98 96 96 94 94 97 99 98 97 97 93 87 85 88 92 93 92 91 90 90 89 86 86
53 55 56 58 62 65 68 64 54 64 92 104 101 100 99 98 101 101 99 101 100 100 101 100 100 101 100 101 100 98 99 99 99 100 101 101 102 100 97 93 86 81 76 70 69 71 73 74 75 74 71 65 61 63 69 75 81 85 89 95 95 94 97
56 59 59 61 66 69 66 56 49 65 94 104 100 100 100 100 100 100 100 100 99 99 100 99 100 100 98 101 100 96 96 99 99 99 100 101 101 98 96 87 75 68 65 62 61 59 59 60 60 58 58 55 54 57 62 69 80 90 97 102 100 96 95
59 61 63 64 67 68 63 52 46 61 87 102 102 100 100 101 100 100 101 100 98 98 98 97 99 101 101 104 102 96 97 101 101 101 101 102 101 99 99 92 79 71 67 63 63 66 67 69 68 67 70 72 76 83 89 93 97 98 98 95 89 85 81
64 65 66 66 65 67 67 58 50 59 84 102 102 100 100 101 100 100 101 100 98 98 98 99 99 99 99 99 94 92 98 101 100 101 102 102 101 100 101 97 90 85 78 68 64 64 66 69 73 78 84 85 84 87 92 96 93 85 84 83 77 73 71
71 71 69 67 66 69 73 68 56 56 79 100 103 101 101 100 100 101 101 100 99 97 96 97 95 91 92 92 89 90 95 94 93 99 103 100 99 102 102 97 94 92 88 81 75 73 74 75 74 75 76 75 76 80 83 83 74 65 70 79 77 72 70
76 76 73 69 69 71 73 72 61 53 70 96 104 101 100 101 100 100 100 100 99 99 100 100 97 93 92 95 98 99 98 93 90 95 102 102 101 102 98 93 92 95 95 94 93 94 96 96 92 87 84 81 81 83 81 75 66 58 63 80 90 86 80
81 83 78 73 74 73 69 68 65 58 68 93 105 102 99 101 101 99 100 101 99 100 100 98 97 94 87 85 92 97 96 91 87 88 95 100 101 99 96 96 98 100 100 100 101 101 100 100 98 94 91 86 82 80 76 70 65 57 57 74 94 97 93
86 89 85 79 78 74 65 63 67 68 71 85 101 105 101 100 101 101 100 100 100 100 99 96 95 93 85 83 88 90 84 78 76 78 84 91 96 98 100 101 102 102 101 100 98 94 89 86 82 79 76 73 70 67 64 61 58 54 52 64 82 92 99
92 96 94 85 77 71 64 62 69 75 76 80 91 101 103 100 100 100 100 100 100 100 100 99 99 98 98 97 91 80 71 70 75 82 89 94 98 101 102 101 99 96 92 87 82 78 75 72 69 68 68 66 63 61 60 61 60 59 61 70 78 84 93
97 101 99 89 79 71 65 66 70 75 78 78 78 86 99 104 102 100 101 101 100 101 100 100 101 100 99 92 78 67 70 79 87 96 100 100 100 100 98 95 91 85 79 77 76 75 76 74 71 73 74 72 70 71 72 76 78 77 80 86 86 82 81
99 99 96 92 87 78 70 70 73 74 76 77 72 71 84 98 101 99 99 99 100 101 99 99 102 101 95 86 80 80 87 94 97 97 94 91 90 90 87 84 82 79 78 79 79 79 80 79 77 79 81 80 81 84 85 90 94 92 89 90 91 86 79
98 98 97 95 92 85 76 74 76 76 74 75 73 69 72 81 84 82 82 82 83 83 78 78 84 88 84 82 85 87 86 85 85 84 83 83 83 83 83 83 82 81 81 81 81 81 81 80 78 80 84 85 88 90 91 95 100 100 97 97 99 99 93
97 98 97 94 91 88 83 80 80 81 77 75 76 76 77 79 77 72 69 69 68 67 65 64 66 69 71 76 84 90 90 88 87 86 87 88 88 88 89 88 85 82 81 81 82 82 81 80 80 82 84 85 88 92 94 98 103 106 105 103 102 101 100
91 90 85 83 85 88 90 90 88 85 82 79 80 81 82 82 79 74 73 72 70 71 73 75 77 79 83 89 95 100 103 101 98 97 97 97 96 94 91 87 83 80 79 77 76 76 77 79 84 88 90 92 97 101 102 104 106 107 104 101 101 100 98
78 76 73 78 86 92 97 99 95 89 86 87 90 91 92 94 91 87 86 84 84 88 91 94 97 98 99 101 102 103 104 103 101 101 100 98 95 90 86 81 78 75 72 70 71 73 77 84 92 98 100 101 103 104 105 105 105 104 101 100 100 99 97
86 84 85 90 95 97 99 100 98 95 96 99 100 95 94 96 98 99 99 96 95 98 101 102 103 102 102 102 102 102 102 101 100 98 95 92 88 83 79 75 72 70 69 70 75 80 88 97 103 104 103 103 102 102 104 105 103 101 100 100 99 98 97
99 97 98 100 100 100 100 101 101 100 101 102 96 85 80 83 86 89 96 100 101 102 102 102 101 100 100 100 100 100 99 98 96 94 89 85 82 78 74 72 69 68 69 74 81 88 96 103 106 105 105 105 104 102 101 102 101 100 99 99 99 98 97
102 101 100 100 101 101 100 100 101 101 101 99 94 88 88 92 92 90 93 99 102 101 99 99 100 100 100 100 100 99 98 96 93 89 85 81 79 75 72 71 69 69 73 80 88 95 100 104 106 106 104 103 102 101 100 99 100 100 99 98 98 98 98
95 100 100 98 98 102 104 103 101 101 101 100 98 97 99 101 100 99 99 99 101 101 99 98 99 100 100 100 100 98 96 93 89 85 81 79 76 75 74 73 73 76 82 89 95 101 105 107 108 106 103 101 100 101 100 99 99 99 98 98 98 97 97
81 86 88 86 86 91 98 100 100 101 102 101 101 101 101 100 101 102 101 100 101 102 101 99 100 101 100 99 99 96 93 89 85 82 80 78 78 78 77 76 79 84 88 91 95 100 104 106 107 107 107 104 101 100 100 100 99 98 97 97 97 96 95
87 84 86 87 86 85 87 90 96 101 101 100 100 101 100 101 102 101 101 101 100 101 101 100 100 101 100 98 96 92 88 86 83 81 81 80 80 81 80 81 85 88 89 91 94 98 101 103 106 108 107 104 101 102 102 100 98 97 97 97 97 97 96
96 91 91 92 91 89 88 90 96 102 102 100 101 102 102 102 101 99 99 98 96 96 98 98 98 99 97 95 92 89 87 86 84 83 82 82 83 84 85 87 89 90 91 95 98 100 102 105 106 106 105 104 105 106 104 101 100 99 99 99 98 97 97

ECMWFFLT1_925_rhum_114.txt.gz
RH
32 30 29 29 29 29 29 31 31 31 32 33 33 34 34 35 35 36 37 37 38 40 44 49 52 53 54 54 54 53 52 53 55 54 52 52 52 51 51 48 50 55 55 53 51 48 45 44 45 46 45 45 45 45 49 53 53 55 58 57 52 50 52
31 31 30 29 29 30 30 31 32 32 33 34 35 36 36 37 37 38 38 39 40 41 44 49 54 56 57 57 59 61 61 59 58 56 54 55 55 53 51 50 53 57 58 60 59 54 49 45 44 44 43 43 45 46 48 50 51 52 54 55 57 55 50
32 31 31 30 30 31 31 32 33 34 35 36 38 38 38 39 39 40 40 40 41 43 45 49 55 59 61 61 63 65 65 64 63 61 59 58 58 57 53 52 56 60 62 64 64 58 51 46 45 46 47 47 49 50 50 52 53 54 55 56 60 62 57
32 31 31 31 31 32 32 33 34 36 37 39 41 42 42 42 42 43 43 43 44 46 48 50 55 59 63 65 65 65 66 65 65 67 68 68 67 64 60 57 57 60 64 65 65 61 54 51 52 53 53 52 52 51 52 53 53 54 58 58 58 63 63
32 31 31 31 32 33 34 35 36 38 40 41 42 43 44 46 47 48 49 49 49 51 53 56 58 60 64 66 65 66 69 68 65 67 70 74 74 71 69 67 64 63 64 65 65 65 62 61 62 62 60 57 54 52 52 53 54 55 57 57 55 61 67
31 31 30 31 32 34 36 37 38 40 42 43 43 44 46 48 51 53 55 55 55 56 58 60 63 64 66 69 69 70 73 74 74 75 75 76 80 79 77 76 74 71 70 68 69 71 71 69 69 67 64 59 56 54 54 54 55 54 54 56 58 60 65
31 31 29 31 33 34 36 39 42 43 44 45 45 46 50 53 55 57 58 59 60 62 64 65 69 71 71 72 74 77 79 78 78 83 84 82 84 87 87 86 84 81 79 77 77 78 77 74 71 68 64 60 57 57 57 57 56 54 51 53 54 54 57
32 31 30 32 33 34 37 41 44 46 47 49 50 52 56 60 61 61 61 62 63 66 69 72 73 72 69 68 69 72 74 72 72 80 87 89 92 94 95 93 90 87 86 85 84 82 79 75 72 67 62 59 57 57 58 58 57 55 52 50 50 52 55
33 32 31 32 33 35 39 42 44 44 45 49 50 49 50 55 60 64 68 69 69 71 75 77 76 70 63 62 63 65 67 68 70 75 79 85 93 98 100 99 93 89 88 86 84 83 80 75 72 67 63 60 58 58 58 57 56 55 53 50 48 49 51
32 32 32 32 34 36 39 41 41 39 41 50 55 53 49 48 50 56 62 64 66 69 74 74 71 67 65 66 67 69 71 74 80 84 83 85 91 97 100 101 98 94 89 86 83 81 79 76 72 69 66 62 60 59 59 58 58 57 54 51 50 49 49
32 32 32 33 35 36 37 38 37 36 47 63 73 76 78 76 72 70 69 69 69 72 76 78 75 73 75 76 77 80 83 87 92 97 98 97 97 99 101 100 100 99 94 90 86 81 80 78 76 73 69 64 62 61 61 61 61 60 58 56 56 55 53
32 33 34 35 36 36 37 38 36 42 60 77 85 91 97 98 98 96 93 92 91 88 88 91 92 90 88 86 83 83 86 89 91 94 100 103 101 100 101 101 100 100 97 95 91 85 82 81 80 80 77 72 69 67 67 67 65 64 64 62 62 62 59
33 34 35 36 37 37 38 38 38 49 71 88 94 99 101 99 101 102 100 100 100 99 99 99 100 100 99 97 93 89 89 90 89 88 93 101 103 101 100 101 100 99 98 98 96 92 89 86 84 83 82 80 79 77 75 75 72 71 69 66 66 65 60
34 36 37 37 38 38 40 42 41 50 74 94 100 102 101 100 101 101 100 101 100 101 101 100 101 101 99 99 99 97 97 97 93 90 92 98 102 102 101 101 100 100 100 101 101 100 98 97 94 91 88 87 88 87 85 82 79 77 76 75 75 74 71
36 38 37 37 40 41 44 46 44 55 83 100 102 102 101 100 101 100 100 101 100 100 101 100 101 101 98 98 100 100 100 98 95 94 97 100 102 102 102 102 100 100 101 99 100 101 101 99 98 98 96 93 92 92 91 91 89 85 83 82 80 81 83
39 39 39 40 42 45 48 49 47 64 94 104 100 101 101 99 101 101 100 101 100 100 101 100 100 101 99 99 100 101 101 99 97 97 99 103 103 102 102 100 96 96 94 90 89 90 88 83 80 81 79 75 74 73 74 82 89 89 90 88 83 81 81
40 40 41 43 46 48 52 53 52 66 92 103 100 100 101 100 100 101 100 100 101 100 100 100 100 100 101 100 99 100 102 100 100 100 100 102 102 101 102 99 92 86 80 75 76 78 78 75 73 73 73 73 77 80 83 89 93 91 91 88 81 75 71
41 43 44 46 48 51 55 59 57 62 81 99 103 100 100 101 100 100 101 100 100 100 100 100 100 99 100 101 98 100 102 101 101 102 101 101 102 102 104 100 93 87 80 74 71 68 69 72 73 76 81 85 90 94 96 100 101 97 92 85 77 72 67
46 48 49 49 52 56 61 66 64 56 63 88 104 101 99 102 100 99 101 100 99 101 100 99 100 100 101 102 101 102 103 100 98 100 101 101 99 99 101 100 95 93 88 80 72 65 64 65 65 68 72 74 76 79 81 87 94 95 89 81 75 72 69
52 54 55 57 60 63 65 68 67 51 43 67 99 105 99 100 102 99 100 101 100 99 98 97 96 95 98 101 102 103 99 88 86 95 101 101 100 100 100 100 99 97 90 83 78 75 73 72 73 78 80 77 77 80 81 84 88 87 83 80 76 72 70
59 63 64 65 67 68 68 68 65 51 37 52 89 108 102 98 101 101 99 101 101 99 97 95 90 89 96 102 102 102 94 77 75 87 95 98 102 98 90 92 98 99 96 94 93 93 92 93 94 96 95 90 89 88 87 87 87 86 84 83 81 78 73
67 73 75 75 77 75 73 68 57 46 39 45 69 98 106 100 99 101 100 99 101 100 97 94 89 87 93 97 101 103 91 68 67 81 88 89 94 91 85 89 99 101 101 102 102 101 100 99 97 94 90 87 87 86 85 86 84 80 76 75 78 82 81
78 86 89 90 88 81 77 71 54 41 43 46 53 77 101 104 99 100 102 100 100 101 99 95 91 88 91 96 103 103 87 65 66 80 82 81 89 95 95 97 101 101 100 99 98 96 94 91 88 84 81 79 78 77 78 78 75 69 64 64 68 72 77
87 93 95 94 91 84 76 70 57 44 46 51 50 61 89 106 102 98 100 100 100 100 100 96 92 92 95 98 95 86 75 68 74 82 83 85 94 101 99 97 97 99 98 94 91 88 85 82 80 77 75 74 74 74 74 75 75 73 69 67 67 68 70
86 87 88 85 84 80 73 67 62 54 49 53 55 60 79 100 105 101 101 101 100 101 100 98 97 96 97 96 91 86 85 88 92 94 94 96 100 101 99 97 95 94 92 88 84 81 78 76 75 74 75 78 78 79 80 83 87 88 86 83 83 85 85
86 84 85 84 81 79 72 67 67 65 56 54 59 63 70 81 89 92 95 97 97 99 99 100 100 97 92 90 90 92 95 97 98 99 98 98 100 101 98 93 88 85 83 80 78 76 74 73 74 76 80 82 82 82 85 88 90 91 90 90 92 93 94
86 83 82 80 77 77 74 70 72 73 66 60 64 70 71 73 76 77 79 80 81 83 83 85 85 82 81 87 91 94 96 97 98 100 99 97 98 97 92 87 84 83 83 80 78 77 77 78 81 83 83 83 83 82 81 82 87 90 88 87 90 90 89
82 81 79 78 75 74 73 72 73 73 69 67 72 77 78 78 77 75 75 76 75 73 71 70 71 73 79 88 93 94 96 98 99 100 99 96 94 93 91 92 94 95 94 90 87 85 83 83 83 83 82 82 83 82 81 83 89 94 92 90 90 89 85
79 76 72 72 70 68 69 70 70 72 76 81 86 88 86 83 81 80 80 80 79 81 80 79 79 81 84 87 89 89 90 94 96 98 98 97 97 97 97 98 98 97 94 89 86 84 82 81 80 79 80 82 84 84 86 89 91 93 93 92 91 87 83
92 86 79 77 76 76 79 81 81 85 93 98 100 99 97 96 94 93 93 91 90 93 96 95 94 94 93 90 89 89 89 91 92 93 93 93 96 99 99 97 93 90 86 82 81 80 79 79 79 79 79 82 85 86 87 89 92 94 94 92 88 84 82
101 98 95 95 94 94 97 97 95 97 101 102 101 98 95 93 92 93 94 97 99 100 102 102 100 98 97 94 89 87 87 87 87 87 87 87 88 91 94 94 90 85 83 81 80 80 80 80 81 80 80 82 85 87 86 86 89 91 91 89 85 82 80
102 102 101 101 101 102 102 101 99 100 101 100 100 98 94 92 92 92 94 99 102 101 101 101 96 91 90 91 87 86 87 87 85 85 86 85 83 82 84 86 85 83 81 79 78 77 78 80 82 83 85 87 88 88 87 86 85 85 84 83 82 81 81
88 95 100 100 98 96 98 101 102 102 100 100 101 101 101 100 100 99 100 102 101 96 93 92 90 85 85 85 85 85 87 88 88 87 86 85 82 80 79 80 83 82 78 77 80 82 82 84 87 89 89 90 91 90 89 87 85 83 82 81 80 80 81
67 71 78 82 82 78 78 83 89 92 95 98 99 98 97 99 101 101 102 102 102 99 95 93 91 89 87 85 85 87 87 88 88 88 87 85 83 83 82 81 81 80 77 77 83 89 90 90 92 93 91 90 89 89 88 87 85 83 81 80 79 78 79
78 75 76 81 83 80 75 74 79 88 97 102 101 97 96 99 102 101 99 97 95 94 94 92 91 90 88 86 87 89 89 89 89 89 89 87 85 85 84 83 81 81 82 84 86 88 90 92 93 94 94 92 91 91 89 85 83 82 81 81 80 80 80
89 89 89 91 91 87 83 81 86 96 102 102 101 100 100 101 102 100 97 93 88 86 87 87 88 89 89 89 89 90 91 92 92 92 91 90 87 85 83 83 83 83 86 90 90 89 92 95 96 95 96 94 93 93 91 88 87 87 86 86 85 84 82

ECMWFFLT1_925_rhum_117.txt.gz
RH
28 29 30 29 29 29 31 32 33 34 34 32 30 28 27 26 27 27 27 27 29 31 34 36 39 41 42 42 42 42 41 41 42 42 42 43 44 45 46 45 45 47 48 46 44 43 42 39 38 37 37 38 39 39 41 42 40 38 39 42 43 43 49
29 30 32 32 32 33 36 39 40 39 37 34 31 29 27 27 28 28 28 29 30 31 33 36 40 43 46 47 48 49 49 48 46 46 46 47 49 48 46 44 42 42 46 48 46 45 43 41 40 41 40 39 37 35 36 37 38 40 42 44 43 42 45
33 33 34 35 36 39 42 45 46 42 39 36 33 30 28 28 29 29 29 29 31 33 34 36 39 43 47 51 52 54 55 56 54 54 53 53 53 49 44 43 45 45 48 49 49 48 47 46 45 44 42 39 38 37 39 40 43 45 45 46 47 47 47
35 36 37 38 41 45 49 50 48 45 41 38 35 34 32 31 31 31 32 33 34 35 36 38 40 44 48 53 56 58 58 60 61 60 57 55 55 52 47 46 49 49 49 49 49 49 50 51 51 48 43 41 41 43 44 46 47 49 49 49 50 50 50
37 39 40 42 46 52 54 52 48 45 43 40 37 37 36 36 36 35 36 37 38 39 40 41 42 44 48 53 57 62 64 63 62 60 58 59 60 60 59 56 56 55 53 52 52 51 51 53 53 51 48 46 48 50 51 50 51 50 50 51 53 54 55
40 41 43 47 53 57 55 51 48 46 44 41 39 39 39 40 42 42 42 43 44 45 46 46 46 47 49 52 56 62 65 65 62 60 63 66 67 66 67 68 66 64 62 61 60 59 58 57 56 55 54 53 53 55 55 53 52 51 51 53 54 55 55
44 46 49 54 58 57 54 51 49 47 45 44 43 41 40 43 45 46 47 48 49 51 51 50 50 51 52 55 57 60 65 66 65 65 67 71 72 70 71 74 75 74 72 70 68 67 65 62 60 59 59 58 57 58 56 54 53 52 51 53 53 53 52
49 51 54 57 56 55 53 51 50 49 48 47 46 44 43 46 49 49 50 51 53 54 55 54 53 54 55 57 58 61 64 66 67 70 72 74 78 80 79 79 80 81 81 79 76 74 71 67 64 61 60 60 59 59 57 54 53 52 52 53 53 52 51
52 54 55 55 54 54 53 52 51 51 50 49 47 45 46 48 51 52 52 54 55 55 55 56 56 58 58 60 63 65 67 68 69 73 75 74 77 84 87 87 86 84 83 83 80 78 75 72 69 66 63 61 59 58 56 53 52 52 53 53 53 52 51
54 55 56 55 54 54 53 53 53 52 51 51 48 44 45 49 51 53 54 56 58 59 60 59 59 61 63 67 73 74 77 82 80 79 81 81 79 80 83 88 91 89 86 83 80 78 76 74 72 69 65 63 60 58 56 54 53 53 53 54 55 55 54
57 57 57 56 54 54 54 54 54 52 54 60 60 53 47 46 48 51 53 55 58 60 60 59 60 62 65 70 75 77 82 92 93 89 90 93 92 89 85 85 89 92 89 85 82 79 76 75 73 71 68 65 62 60 58 56 55 55 55 56 58 59 58
59 58 56 54 53 53 54 55 52 51 58 69 72 69 64 60 60 62 63 63 63 61 59 59 62 65 68 71 73 73 77 87 91 91 94 97 99 99 97 94 94 95 93 89 86 83 79 77 76 74 72 70 68 65 63 61 60 59 59 60 61 61 60
58 58 54 51 51 52 54 54 49 50 63 73 73 74 78 77 80 86 89 87 83 78 75 74 75 78 81 84 85 85 84 84 86 87 90 95 98 100 102 99 96 96 97 95 92 90 86 81 80 80 77 75 74 73 71 69 68 67 66 66 66 64 62
57 55 51 50 52 53 53 50 43 47 65 75 74 76 80 82 86 94 98 99 97 94 92 90 89 92 95 95 95 96 94 91 91 90 88 90 93 96 100 101 98 97 100 101 99 98 94 87 82 82 80 77 77 78 78 77 77 76 74 73 72 70 68
54 52 51 52 52 50 49 44 38 45 64 73 75 79 84 87 93 97 99 101 101 100 100 98 98 99 100 99 97 97 97 95 96 95 92 92 91 91 96 100 100 99 99 99 99 100 100 97 93 90 86 82 80 80 79 80 82 81 81 81 80 79 78
53 52 51 51 49 46 45 42 38 48 69 77 76 80 86 91 96 99 99 100 100 100 100 100 101 100 99 100 100 99 98 98 99 98 97 98 98 96 97 98 98 100 97 92 93 95 93 93 94 94 93 91 91 88 83 84 87 88 88 88 85 83 80
53 53 50 46 44 42 43 43 38 48 72 82 82 87 94 96 98 99 100 100 99 100 100 100 101 100 100 101 100 99 99 98 100 101 100 100 101 101 102 99 97 99 93 83 84 90 91 89 86 85 84 84 89 92 92 93 94 93 91 89 85 81 76
52 52 49 45 43 41 43 44 36 40 64 81 86 94 100 99 99 100 99 100 100 99 100 101 100 99 100 100 98 100 101 98 99 102 101 100 102 102 102 100 96 97 94 86 82 82 84 87 85 84 88 90 91 95 99 102 101 97 94 89 82 76 70
51 53 52 49 46 43 44 45 37 37 57 78 87 96 101 100 100 101 100 99 100 99 99 99 100 99 99 100 99 100 100 97 98 102 101 100 101 102 101 99 96 94 92 90 84 73 64 63 62 65 74 79 78 79 85 93 97 97 97 92 84 78 74
53 55 57 54 53 49 45 46 42 37 50 75 90 97 101 101 99 100 100 100 99 100 99 98 97 97 96 98 100 100 94 85 83 92 98 100 101 101 99 97 96 95 92 90 86 77 67 63 59 56 59 62 63 63 67 76 84 87 91 92 87 82 79
58 61 61 58 58 56 50 48 47 40 45 72 96 100 99 101 101 100 100 100 100 99 97 94 93 90 90 94 98 101 95 78 66 73 88 98 101 98 94 95 95 94 94 95 95 91 90 88 85 81 79 78 78 76 73 74 77 76 79 86 86 83 81
62 66 68 65 63 64 59 54 53 47 46 66 94 104 101 99 100 100 100 99 101 101 97 94 93 91 90 92 95 100 99 82 64 66 80 92 94 90 88 94 97 95 95 99 101 100 99 98 95 92 90 90 90 88 82 80 81 78 79 83 85 83 84
66 70 76 76 72 72 70 65 63 59 50 50 68 89 101 102 100 100 102 100 99 100 98 96 95 93 91 95 99 99 94 80 67 68 77 83 83 82 85 94 99 100 100 100 100 100 97 94 91 89 87 88 88 85 79 79 84 86 86 85 84 83 84
72 76 81 81 78 77 78 76 73 69 58 47 45 57 81 100 102 98 100 101 100 101 100 98 97 96 95 98 98 88 78 74 73 76 81 85 87 89 94 97 97 100 102 101 100 100 97 93 90 87 84 83 81 79 77 76 79 84 86 83 80 76 75
71 74 76 76 75 76 77 77 76 70 63 57 49 43 57 87 106 103 100 100 99 99 101 100 100 99 96 94 92 84 81 87 91 92 92 94 97 99 99 97 95 95 97 96 93 91 90 87 84 83 81 80 78 79 79 77 76 78 78 75 72 70 68
69 70 72 72 72 73 72 73 74 71 64 62 60 50 46 62 84 93 98 102 102 100 100 100 100 100 97 95 96 96 97 97 95 93 92 93 97 101 100 97 94 91 91 90 87 86 85 83 81 80 79 79 79 80 80 79 78 78 76 76 80 82 80
71 71 71 71 71 72 72 70 71 72 69 65 65 62 55 52 58 66 76 87 94 97 99 99 99 100 100 100 101 101 100 96 90 88 89 91 96 100 99 97 94 89 86 86 83 81 80 77 75 74 73 75 79 82 82 80 80 80 78 78 83 87 86
70 71 72 72 70 68 68 68 68 68 69 65 62 63 63 63 64 66 68 71 76 81 86 89 91 94 95 96 96 96 96 95 93 92 91 91 93 94 92 91 88 84 83 81 78 77 76 74 73 74 74 77 81 82 81 80 80 80 78 78 82 85 84
71 70 69 70 69 67 65 63 61 62 65 66 67 68 71 74 77 78 75 71 71 76 81 85 89 90 89 88 89 88 86 86 86 88 88 89 91 90 88 87 85 84 85 84 83 83 84 82 81 81 80 80 81 80 78 78 79 79 78 80 86 87 84
87 84 80 76 74 72 69 64 61 64 72 81 87 91 92 93 93 92 89 84 81 85 90 91 91 90 88 87 86 84 81 79 79 81 84 87 91 90 87 87 87 86 88 90 91 90 88 85 83 82 80 79 79 77 76 78 81 84 84 86 88 86 83
101 99 97 95 91 89 89 86 83 85 92 99 100 95 90 91 92 94 97 98 96 98 100 99 96 93 89 86 85 83 81 79 78 80 82 84 88 91 90 91 91 89 89 91 91 89 86 84 83 81 79 78 77 75 75 77 81 85 87 88 87 85 83
101 100 99 101 100 100 100 99 98 99 100 100 97 90 86 90 93 94 97 101 102 102 101 99 96 92 87 85 84 83 83 80 78 80 81 82 84 87 89 90 90 89 89 89 88 86 85 83 82 80 78 77 76 76 78 81 82 82 84 85 84 83 82
98 100 100 100 99 100 102 102 102 103 100 97 98 100 99 100 100 96 94 96 99 100 97 92 88 86 84 82 80 81 83 82 79 79 80 80 81 81 82 84 87 89 88 87 86 85 83 81 79 77 77 78 79 81 83 85 84 82 82 82 81 80 80
81 87 90 89 84 86 94 94 87 81 77 76 83 92 96 98 101 100 97 98 101 101 96 89 83 79 78 79 79 79 83 84 83 81 80 80 81 81 82 83 86 87 86 86 86 86 84 81 79 78 78 80 81 83 85 86 85 84 83 82 80 79 78
73 74 80 83 79 79 89 91 82 75 74 74 76 83 91 98 103 101 97 95 95 94 95 94 89 82 79 81 82 82 83 85 85 85 84 82 82 82 83 85 86 85 84 84 84 84 82 82 82 81 82 83 83 83 84 84 83 83 82 81 80 79 78
75 74 79 84 84 84 92 98 98 97 98 96 94 96 98 101 100 97 92 87 84 84 88 92 91 86 83 84 83 82 82 83 84 85 85 84 83 83 83 85 86 85 85 85 84 83 81 81 84 84 84 85 85 84 86 86 85 84 83 82 82 82 81